OPS 4682 DEB, 20131

Orbit data source: Space-Track

OPS 4682 DEB, 20131 is space debris in LEO originally from a launch on Sat, 03 Apr 1965 UTC launched from the Air Force Western Test Range (AFWTR). Debris objects in space refer to the collection of defunct objects orbiting the Earth. Examples of debris include non-operational satellites, rocket bodies, and fragments generated from explosions, collisions, or faulty payload assembly.

Loading next visibility...
Identifier
20131, 1965-027BD
Orbit
LEO
Country
Flag of USUS
Related business
Manufacturer
Unknown
Mission
Spacecraft
Bus & Motor
Unknown
Mass
Unknown
Launch date (UTC)
1965-04-03 (61 years ago)
Launch vehicle
Unknown
Launch site
Air Force Western Test Range (AFWTR)
Object type
Payload
Rocket body
Debris
Shape & HBR
Unknown shape, 0.1 m
Radar Cross Section
Small (<0.1 m²)

Expand to show TLE details & history
Last TLE update: 2 days ago

TLE from 2 days ago
0 OPS 4682 DEB
1 20131U 65027BD  26071.26255163  .00000072  00000-0  21477-3 0  9996
2 20131  90.2457   2.4173 0031130 209.6028 305.8872 13.00293107752371
Epoch: 2026-03-12T06:18Z
TLE epoch observation values (Epoch: 2026-03-12T06:18:04.460Z)
Latitude
24.82389°
Longitude
-81.90316°
Altitude
1,250.047 km
Speed
7.239 km/s
True Right ascension
12h 10m 07s
True Declination
24° 42' 06"
Sunlit
Object was in full shadow at epoch
Visualization orbit readout
Latitude
Unknown
Longitude
Unknown
Altitude
Unknown
Speed
Unknown
Apparent Right ascension
Unknown
Apparent Declination
Unknown
Sunlit
N/A
Visualization observer readout
Local Sidereal Time
05:59:04
Azimuth
Unknown
Elevation
Unknown
Doppler factor
Unknown
Orbital elements
Apogee altitude
1,281.836 km
Perigee altitude
1,234.293 km
Semi-major axis
7,636.202 km
Eccentricity
0.00311
Inclination
90.2457°
RAAN
2.4173°
Arg. of periapsis
209.6028°
True anomaly
305.59753°
Mean anomaly
305.8872°
Eccentric anomaly
305.74243°
Mean motion
3.25257 °/min
Orbital period
110.68 mins
BSTAR
0.00021477
Loading maneuver chart data...
Computing Atmospheric mass density...
Loading historical data...
Loading historical data...
Loading historical data...
Loading historical data...
Loading historical data...
Loading historical data...
Loading historical data...

Documentation

Showing up to 5 results
|